| time (UTC) | temp F | wind direction | speed MPH | gust MPH | rain 1hr in | rain 24hr in | rain mn in | humidity % | barometer mb |
| 20260902083025 | 72 | 177 | 1.0 | 2.0 | 0.00 | 0.00 | 0.00 | 81 | 1011.2 |
| 20260902083003 | 65 | 155 | 0.0 | 0.0 | 0.00 | 0.00 | 0.00 | 83 | 1015.2 |
| 20260902081524 | 73 | 147 | 0.0 | 2.0 | 0.00 | 0.00 | 0.00 | 81 | 1011.1 |
| 20260902081502 | 65 | 155 | 0.0 | 0.0 | 0.00 | 0.00 | 0.00 | 82 | 1015.3 |
| 20260902080113 | 65 | 155 | 0.0 | 0.0 | 0.00 | 0.00 | 0.00 | 82 | 1015.3 |
| 20260902080023 | 73 | 359 | 1.0 | 4.0 | 0.00 | 0.00 | 0.00 | 80 | 1011.1 |
| 20260902074557 | 66 | 155 | 0.0 | 0.0 | 0.00 | 0.00 | 0.00 | 82 | 1015.0 |
| 20260902074522 | 73 | 359 | 1.0 | 3.0 | 0.00 | 0.00 | 0.00 | 81 | 1011.1 |
| 20260902073056 | 66 | 155 | 0.0 | 0.0 | 0.00 | 0.00 | 0.00 | 81 | 1015.0 |
| 20260902073021 | 74 | 222 | 0.0 | 1.0 | 0.00 | 0.00 | 0.00 | 80 | 1011.1 |
| 20260902071553 | 66 | 155 | 0.0 | 0.0 | 0.00 | 0.00 | 0.00 | 81 | 1014.8 |
| 20260902071530 | 74 | 359 | 0.0 | 2.0 | 0.00 | 0.00 | 0.00 | 79 | 1011.0 |
| 20260902070051 | 66 | 155 | 0.0 | 0.0 | 0.00 | 0.00 | 0.00 | 80 | 1014.8 |
| 20260902070015 | 74 | 359 | 1.0 | 2.0 | 0.00 | 0.00 | 0.00 | 78 | 1011.0 |
| 20260902064605 | 67 | 155 | 0.0 | 0.0 | 0.00 | 0.00 | 0.00 | 80 | 1014.8 |
| 20260902064515 | 75 | 359 | 0.0 | 0.0 | 0.00 | 0.00 | 0.00 | 77 | 1011.3 |
| 20260902063050 | 67 | 155 | 0.0 | 0.0 | 0.00 | 0.00 | 0.00 | 79 | 1014.8 |
| 20260902063011 | 75 | 359 | 0.0 | 0.0 | 0.00 | 0.00 | 0.00 | 76 | 1011.3 |
| 20260902061555 | 67 | 155 | 0.0 | 0.0 | 0.00 | 0.00 | 0.00 | 78 | 1014.6 |
| 20260902061509 | 76 | 359 | 0.0 | 2.0 | 0.00 | 0.00 | 0.00 | 74 | 1011.3 |
| 20260902060049 | 68 | 155 | 0.0 | 0.0 | 0.00 | 0.00 | 0.00 | 78 | 1014.6 |
| 20260902060006 | 76 | 222 | 0.0 | 0.0 | 0.00 | 0.00 | 0.00 | 73 | 1011.2 |
| 20260902054549 | 69 | 155 | 0.0 | 0.0 | 0.00 | 0.00 | 0.00 | 78 | 1014.6 |
| 20260902054503 | 77 | 359 | 0.0 | 0.0 | 0.00 | 0.00 | 0.00 | 71 | 1011.3 |
| 20260902053054 | 69 | 155 | 0.0 | 0.0 | 0.00 | 0.00 | 0.00 | 77 | 1014.5 |
| 20260902053002 | 78 | 359 | 0.0 | 0.0 | 0.00 | 0.00 | 0.00 | 69 | 1011.3 |
| 20260902051607 | 79 | 359 | 0.0 | 0.0 | 0.00 | 0.00 | 0.00 | 65 | 1011.3 |
| 20260902051550 | 69 | 155 | 0.0 | 0.0 | 0.00 | 0.00 | 0.00 | 76 | 1014.5 |
| 20260902050054 | 80 | 359 | 0.0 | 2.0 | 0.00 | 0.00 | 0.00 | 64 | 1011.1 |
| 20260902050048 | 69 | 155 | 0.0 | 0.0 | 0.00 | 0.00 | 0.00 | 76 | 1014.3 |
| 20260902044554 | 80 | 359 | 1.0 | 3.0 | 0.00 | 0.00 | 0.00 | 62 | 1011.0 |
| 20260902044547 | 70 | 155 | 0.0 | 0.0 | 0.00 | 0.00 | 0.00 | 78 | 1014.3 |
| 20260902043101 | 79 | 221 | 1.0 | 3.0 | 0.00 | 0.00 | 0.00 | 65 | 1010.9 |
| 20260902043047 | 70 | 155 | 0.0 | 0.0 | 0.00 | 0.00 | 0.00 | 78 | 1013.9 |
| 20260902041553 | 79 | 359 | 0.0 | 1.0 | 0.00 | 0.00 | 0.00 | 67 | 1011.0 |
| 20260902041545 | 70 | 155 | 0.0 | 0.0 | 0.00 | 0.00 | 0.00 | 77 | 1013.7 |
| 20260902040052 | 80 | 158 | 0.0 | 1.0 | 0.00 | 0.00 | 0.00 | 65 | 1011.1 |
| 20260902040046 | 70 | 155 | 0.0 | 0.0 | 0.00 | 0.00 | 0.00 | 76 | 1013.6 |
| 20260902034556 | 70 | 153 | 0.0 | 0.0 | 0.00 | 0.00 | 0.00 | 78 | 1013.3 |
| 20260902034552 | 81 | 359 | 0.0 | 0.0 | 0.00 | 0.00 | 0.00 | 64 | 1011.1 |
| 20260902033059 | 71 | 150 | 0.0 | 0.0 | 0.00 | 0.00 | 0.00 | 78 | 1013.2 |
| 20260902033055 | 82 | 359 | 0.0 | 0.0 | 0.00 | 0.00 | 0.00 | 61 | 1011.1 |
| 20260902031551 | 83 | 359 | 0.0 | 2.0 | 0.00 | 0.00 | 0.00 | 60 | 1010.9 |
| 20260902031548 | 71 | 149 | 0.0 | 0.0 | 0.00 | 0.00 | 0.00 | 77 | 1013.1 |
| 20260902030053 | 83 | 359 | 0.0 | 3.0 | 0.00 | 0.00 | 0.00 | 59 | 1010.7 |
| 20260902030044 | 72 | 150 | 0.0 | 0.0 | 0.00 | 0.00 | 0.00 | 76 | 1013.0 |
| 20260902024559 | 82 | 208 | 2.0 | 4.0 | 0.00 | 0.00 | 0.00 | 62 | 1010.4 |
| 20260902024547 | 72 | 158 | 0.0 | 0.0 | 0.00 | 0.00 | 0.00 | 75 | 1012.5 |
| 20260902023055 | 82 | 359 | 0.0 | 2.0 | 0.00 | 0.00 | 0.00 | 67 | 1010.4 |
| 20260902023044 | 73 | 140 | 0.0 | 0.0 | 0.00 | 0.00 | 0.00 | 72 | 1012.6 |
| 20260902021550 | 82 | 168 | 0.0 | 1.0 | 0.00 | 0.00 | 0.00 | 66 | 1010.4 |
| 20260902021542 | 73 | 152 | 0.0 | 0.0 | 0.00 | 0.00 | 0.00 | 71 | 1012.6 |
| 20260902020106 | 83 | 174 | 0.0 | 0.0 | 0.00 | 0.00 | 0.00 | 64 | 1010.4 |
| 20260902020043 | 74 | 157 | 0.0 | 0.0 | 0.00 | 0.00 | 0.00 | 68 | 1012.6 |
| 20260902014554 | 84 | 359 | 0.0 | 0.0 | 0.00 | 0.00 | 0.00 | 62 | 1010.2 |
| 20260902014542 | 74 | 159 | 0.0 | 0.0 | 0.00 | 0.00 | 0.00 | 66 | 1012.6 |
| 20260902013049 | 86 | 359 | 0.0 | 1.0 | 0.00 | 0.00 | 0.00 | 60 | 1010.0 |
| 20260902013041 | 75 | 159 | 0.0 | 0.0 | 0.00 | 0.00 | 0.00 | 66 | 1012.6 |
| 20260902011548 | 87 | 164 | 0.0 | 0.0 | 0.00 | 0.00 | 0.00 | 57 | 1009.8 |
| 20260902011540 | 76 | 126 | 0.0 | 0.0 | 0.00 | 0.00 | 0.00 | 64 | 1012.5 |
| 20260902010049 | 89 | 164 | 0.0 | 0.0 | 0.00 | 0.00 | 0.00 | 53 | 1009.9 |
| 20260902010039 | 76 | 162 | 0.0 | 0.0 | 0.00 | 0.00 | 0.00 | 62 | 1012.7 |
| 20260902004546 | 91 | 164 | 0.0 | 0.0 | 0.00 | 0.00 | 0.00 | 49 | 1010.0 |
| 20260902004541 | 77 | 165 | 0.0 | 0.0 | 0.00 | 0.00 | 0.00 | 63 | 1012.6 |
| 20260902003046 | 92 | 146 | 0.0 | 3.0 | 0.00 | 0.00 | 0.00 | 45 | 1010.0 |
| 20260902003038 | 77 | 141 | 0.0 | 0.0 | 0.00 | 0.00 | 0.00 | 64 | 1012.8 |
| 20260902001544 | 94 | 177 | 1.0 | 5.0 | 0.00 | 0.00 | 0.00 | 43 | 1010.1 |
| 20260902001537 | 77 | 156 | 0.0 | 0.0 | 0.00 | 0.00 | 0.00 | 62 | 1012.8 |
| 20260902000046 | 95 | 170 | 2.0 | 6.0 | 0.00 | 0.00 | 0.00 | 41 | 1010.2 |
| 20260902000039 | 78 | 161 | 0.0 | 0.0 | 0.00 | 0.00 | 0.00 | 61 | 1012.9 |
| 20260901234600 | 96 | 156 | 2.0 | 6.0 | 0.00 | 0.00 | 0.00 | 40 | 1010.3 |
| 20260901234543 | 79 | 133 | 0.0 | 1.0 | 0.00 | 0.00 | 0.00 | 60 | 1012.9 |
| 20260901233051 | 96 | 135 | 1.0 | 7.0 | 0.00 | 0.00 | 0.00 | 40 | 1010.3 |
| 20260901233043 | 79 | 155 | 0.0 | 0.0 | 0.00 | 0.00 | 0.00 | 59 | 1012.9 |
| 20260901231543 | 96 | 218 | 3.0 | 8.0 | 0.00 | 0.00 | 0.00 | 38 | 1010.3 |
| 20260901231534 | 79 | 153 | 0.0 | 1.0 | 0.00 | 0.00 | 0.00 | 59 | 1012.9 |
| 20260901230048 | 97 | 180 | 5.0 | 11.0 | 0.00 | 0.00 | 0.00 | 36 | 1010.3 |
| 20260901230034 | 79 | 148 | 0.0 | 1.0 | 0.00 | 0.00 | 0.00 | 60 | 1012.9 |
| 20260901224542 | 97 | 174 | 2.0 | 12.0 | 0.00 | 0.00 | 0.00 | 36 | 1010.3 |
| 20260901224537 | 80 | 169 | 0.0 | 0.0 | 0.00 | 0.00 | 0.00 | 61 | 1013.1 |
| 20260901223040 | 97 | 241 | 2.0 | 14.0 | 0.00 | 0.00 | 0.00 | 36 | 1010.4 |
| 20260901223032 | 80 | 167 | 0.0 | 0.0 | 0.00 | 0.00 | 0.00 | 60 | 1013.2 |
| 20260901221602 | 97 | 183 | 8.0 | 13.0 | 0.00 | 0.00 | 0.00 | 34 | 1010.4 |
| 20260901221530 | 80 | 150 | 0.0 | 0.0 | 0.00 | 0.00 | 0.00 | 61 | 1013.1 |
| 20260901220038 | 98 | 109 | 7.0 | 15.0 | 0.00 | 0.00 | 0.00 | 35 | 1010.3 |
| 20260901220029 | 80 | 140 | 0.0 | 1.0 | 0.00 | 0.00 | 0.00 | 58 | 1013.4 |
| 20260901214537 | 98 | 210 | 8.0 | 14.0 | 0.00 | 0.00 | 0.00 | 35 | 1010.4 |
| 20260901214529 | 81 | 156 | 0.0 | 0.0 | 0.00 | 0.00 | 0.00 | 57 | 1013.7 |
| 20260901213038 | 98 | 205 | 9.0 | 14.0 | 0.00 | 0.00 | 0.00 | 35 | 1010.5 |
| 20260901213028 | 81 | 144 | 0.0 | 0.0 | 0.00 | 0.00 | 0.00 | 52 | 1013.7 |
| 20260901211536 | 98 | 198 | 7.0 | 15.0 | 0.00 | 0.00 | 0.00 | 34 | 1010.7 |
| 20260901211528 | 81 | 157 | 0.0 | 0.0 | 0.00 | 0.00 | 0.00 | 53 | 1013.9 |
| 20260901210032 | 98 | 160 | 6.0 | 12.0 | 0.00 | 0.00 | 0.00 | 35 | 1010.7 |
| 20260901210026 | 82 | 171 | 0.0 | 0.0 | 0.00 | 0.00 | 0.00 | 54 | 1013.7 |
| 20260901204534 | 98 | 206 | 10.0 | 17.0 | 0.00 | 0.00 | 0.00 | 33 | 1011.0 |
| 20260901204523 | 81 | 159 | 0.0 | 0.0 | 0.00 | 0.00 | 0.00 | 54 | 1013.8 |
| 20260901203045 | 98 | 211 | 7.0 | 19.0 | 0.00 | 0.00 | 0.00 | 35 | 1011.2 |
| 20260901203024 | 81 | 153 | 0.0 | 0.0 | 0.00 | 0.00 | 0.00 | 55 | 1013.9 |
| 20260901201536 | 98 | 202 | 8.0 | 14.0 | 0.00 | 0.00 | 0.00 | 36 | 1011.2 |
| 20260901201521 | 81 | 160 | 0.0 | 1.0 | 0.00 | 0.00 | 0.00 | 59 | 1014.2 |
| 20260901200027 | 97 | 194 | 8.0 | 18.0 | 0.00 | 0.00 | 0.00 | 37 | 1011.3 |
| 20260901200024 | 80 | 153 | 0.0 | 0.0 | 0.00 | 0.00 | 0.00 | 60 | 1014.3 |
| 20260901194521 | 97 | 130 | 8.0 | 16.0 | 0.00 | 0.00 | 0.00 | 37 | 1011.4 |
| 20260901194518 | 80 | 154 | 0.0 | 0.0 | 0.00 | 0.00 | 0.00 | 62 | 1014.4 |
| 20260901193020 | 97 | 4 | 7.0 | 17.0 | 0.00 | 0.00 | 0.00 | 39 | 1011.7 |
| 20260901191521 | 97 | 242 | 9.0 | 16.0 | 0.00 | 0.00 | 0.00 | 39 | 1011.7 |
| 20260901191518 | 81 | 147 | 0.0 | 0.0 | 0.00 | 0.00 | 0.00 | 63 | 1014.6 |
| 20260901190024 | 81 | 150 | 0.0 | 0.0 | 0.00 | 0.00 | 0.00 | 63 | 1014.6 |
| 20260901190019 | 97 | 166 | 9.0 | 17.0 | 0.00 | 0.00 | 0.00 | 39 | 1011.9 |
| 20260901184515 | 81 | 153 | 0.0 | 0.0 | 0.00 | 0.00 | 0.00 | 62 | 1014.6 |
| 20260901183014 | 81 | 132 | 0.0 | 0.0 | 0.00 | 0.00 | 0.00 | 60 | 1014.7 |
| 20260901183010 | 95 | 68 | 7.0 | 12.0 | 0.00 | 0.00 | 0.00 | 44 | 1012.1 |
| 20260901181519 | 80 | 148 | 0.0 | 0.0 | 0.00 | 0.00 | 0.00 | 62 | 1014.7 |
| 20260901181506 | 94 | 212 | 7.0 | 20.0 | 0.00 | 0.00 | 0.00 | 44 | 1012.3 |
| 20260901180008 | 79 | 148 | 0.0 | 0.0 | 0.00 | 0.00 | 0.00 | 64 | 1014.9 |
| 20260901180003 | 94 | 126 | 5.0 | 13.0 | 0.00 | 0.00 | 0.00 | 45 | 1012.5 |
| 20260901174600 | 94 | 216 | 5.0 | 12.0 | 0.00 | 0.00 | 0.00 | 45 | 1012.6 |
| 20260901174505 | 78 | 154 | 0.0 | 0.0 | 0.00 | 0.00 | 0.00 | 65 | 1015.1 |
| 20260901173100 | 93 | 213 | 4.0 | 14.0 | 0.00 | 0.00 | 0.00 | 48 | 1012.8 |
| 20260901173001 | 77 | 144 | 0.0 | 0.0 | 0.00 | 0.00 | 0.00 | 67 | 1015.0 |
| 20260901171605 | 76 | 188 | 0.0 | 0.0 | 0.00 | 0.00 | 0.00 | 70 | 1014.9 |
| 20260901171600 | 92 | 191 | 7.0 | 17.0 | 0.00 | 0.00 | 0.00 | 48 | 1013.0 |
| 20260901170054 | 75 | 150 | 0.0 | 0.0 | 0.00 | 0.00 | 0.00 | 72 | 1015.0 |
| 20260901170049 | 91 | 208 | 7.0 | 14.0 | 0.00 | 0.00 | 0.00 | 48 | 1013.1 |
| 20260901164555 | 74 | 132 | 0.0 | 0.0 | 0.00 | 0.00 | 0.00 | 75 | 1014.8 |
| 20260901164546 | 90 | 58 | 4.0 | 13.0 | 0.00 | 0.00 | 0.00 | 50 | 1013.2 |
| 20260901163048 | 73 | 130 | 0.0 | 0.0 | 0.00 | 0.00 | 0.00 | 77 | 1014.7 |
| 20260901163046 | 89 | 196 | 6.0 | 15.0 | 0.00 | 0.00 | 0.00 | 51 | 1013.3 |
| 20260901161545 | 88 | 211 | 7.0 | 12.0 | 0.00 | 0.00 | 0.00 | 52 | 1013.4 |
| 20260901160049 | 88 | 259 | 8.0 | 16.0 | 0.00 | 0.00 | 0.00 | 52 | 1013.4 |
| 20260901160039 | 71 | 148 | 0.0 | 0.0 | 0.00 | 0.00 | 0.00 | 80 | 1014.8 |
| 20260901154537 | 70 | 142 | 0.0 | 0.0 | 0.00 | 0.00 | 0.00 | 81 | 1014.8 |
| 20260901154535 | 87 | 218 | 7.0 | 15.0 | 0.00 | 0.00 | 0.00 | 53 | 1013.4 |
| 20260901153037 | 86 | 175 | 6.0 | 12.0 | 0.00 | 0.00 | 0.00 | 55 | 1013.4 |
| 20260901153034 | 70 | 126 | 0.0 | 0.0 | 0.00 | 0.00 | 0.00 | 83 | 1014.6 |
| 20260901151540 | 69 | 179 | 0.0 | 0.0 | 0.00 | 0.00 | 0.00 | 84 | 1014.6 |
| 20260901151529 | 85 | 240 | 7.0 | 14.0 | 0.00 | 0.00 | 0.00 | 56 | 1013.4 |
| 20260901150032 | 68 | 180 | 0.0 | 0.0 | 0.00 | 0.00 | 0.00 | 85 | 1014.4 |
| 20260901150029 | 84 | 161 | 8.0 | 13.0 | 0.00 | 0.00 | 0.00 | 57 | 1013.5 |
| 20260901144529 | 68 | 176 | 0.0 | 0.0 | 0.00 | 0.00 | 0.00 | 85 | 1014.5 |
| 20260901144521 | 83 | 214 | 4.0 | 13.0 | 0.00 | 0.00 | 0.00 | 60 | 1013.4 |
| 20260901143030 | 68 | 176 | 0.0 | 0.0 | 0.00 | 0.00 | 0.00 | 86 | 1014.4 |
| 20260901143018 | 82 | 185 | 5.0 | 8.0 | 0.00 | 0.00 | 0.00 | 62 | 1013.6 |
| 20260901141527 | 68 | 176 | 0.0 | 0.0 | 0.00 | 0.00 | 0.00 | 86 | 1014.4 |
| 20260901141514 | 81 | 185 | 2.0 | 8.0 | 0.00 | 0.00 | 0.00 | 64 | 1013.8 |
| 20260901140031 | 68 | 176 | 0.0 | 0.0 | 0.00 | 0.00 | 0.00 | 86 | 1014.1 |
| 20260901140010 | 80 | 178 | 5.0 | 9.0 | 0.00 | 0.00 | 0.00 | 65 | 1013.9 |
| 20260901134532 | 68 | 176 | 0.0 | 0.0 | 0.00 | 0.00 | 0.00 | 86 | 1013.9 |
| 20260901134508 | 79 | 194 | 2.0 | 8.0 | 0.00 | 0.00 | 0.00 | 67 | 1013.8 |
| 20260901133025 | 68 | 176 | 0.0 | 0.0 | 0.00 | 0.00 | 0.00 | 86 | 1013.7 |
| 20260901133004 | 78 | 200 | 2.0 | 7.0 | 0.00 | 0.00 | 0.00 | 69 | 1013.8 |
| 20260901131602 | 76 | 210 | 4.0 | 8.0 | 0.00 | 0.00 | 0.00 | 71 | 1013.7 |
| 20260901131521 | 68 | 176 | 0.0 | 0.0 | 0.00 | 0.00 | 0.00 | 86 | 1013.5 |
| 20260901130109 | 75 | 204 | 2.0 | 7.0 | 0.00 | 0.00 | 0.00 | 74 | 1013.6 |
| 20260901130021 | 68 | 176 | 0.0 | 0.0 | 0.00 | 0.00 | 0.00 | 86 | 1013.5 |
| 20260901124603 | 73 | 196 | 2.0 | 4.0 | 0.00 | 0.00 | 0.00 | 76 | 1013.5 |
| 20260901124520 | 68 | 176 | 0.0 | 0.0 | 0.00 | 0.00 | 0.00 | 87 | 1013.5 |
| 20260901123056 | 72 | 359 | 1.0 | 4.0 | 0.00 | 0.00 | 0.00 | 77 | 1013.5 |
| 20260901123026 | 68 | 176 | 0.0 | 0.0 | 0.00 | 0.00 | 0.00 | 87 | 1013.3 |
| 20260901121559 | 72 | 217 | 1.0 | 3.0 | 0.00 | 0.00 | 0.00 | 77 | 1013.4 |
| 20260901121520 | 68 | 176 | 0.0 | 0.0 | 0.00 | 0.00 | 0.00 | 87 | 1013.4 |
| 20260901120101 | 72 | 359 | 2.0 | 3.0 | 0.00 | 0.00 | 0.00 | 77 | 1013.2 |
| 20260901120018 | 68 | 175 | 0.0 | 0.0 | 0.00 | 0.00 | 0.00 | 87 | 1013.2 |
| 20260901114553 | 72 | 359 | 2.0 | 4.0 | 0.00 | 0.00 | 0.00 | 76 | 1013.2 |
| 20260901114517 | 68 | 175 | 0.0 | 0.0 | 0.00 | 0.00 | 0.00 | 87 | 1013.3 |
| 20260901113111 | 72 | 359 | 2.0 | 4.0 | 0.00 | 0.00 | 0.00 | 77 | 1013.1 |
| 20260901113020 | 68 | 171 | 0.0 | 0.0 | 0.00 | 0.00 | 0.00 | 88 | 1013.4 |
| 20260901111551 | 72 | 359 | 2.0 | 3.0 | 0.00 | 0.00 | 0.00 | 77 | 1013.0 |
| 20260901111516 | 68 | 171 | 0.0 | 0.0 | 0.00 | 0.00 | 0.00 | 88 | 1013.5 |
| 20260901110103 | 72 | 243 | 3.0 | 5.0 | 0.00 | 0.00 | 0.00 | 77 | 1012.8 |
| 20260901110028 | 67 | 166 | 0.0 | 0.0 | 0.00 | 0.00 | 0.00 | 88 | 1013.7 |
| 20260901104548 | 73 | 359 | 1.0 | 4.0 | 0.00 | 0.00 | 0.00 | 76 | 1012.8 |
| 20260901104515 | 67 | 166 | 0.0 | 0.0 | 0.00 | 0.00 | 0.00 | 88 | 1013.8 |
| 20260901103050 | 72 | 155 | 1.0 | 4.0 | 0.00 | 0.00 | 0.00 | 77 | 1012.6 |
| 20260901103020 | 67 | 166 | 0.0 | 0.0 | 0.00 | 0.00 | 0.00 | 89 | 1013.6 |
| 20260901101608 | 72 | 359 | 1.0 | 3.0 | 0.00 | 0.00 | 0.00 | 78 | 1012.5 |
| 20260901101523 | 67 | 166 | 0.0 | 0.0 | 0.00 | 0.00 | 0.00 | 90 | 1013.7 |
| 20260901100059 | 71 | 359 | 0.0 | 9.0 | 0.00 | 0.00 | 0.00 | 80 | 1012.4 |
| 20260901100013 | 66 | 166 | 0.0 | 0.0 | 0.00 | 0.00 | 0.00 | 90 | 1013.5 |
| 20260901094545 | 71 | 181 | 0.0 | 0.0 | 0.00 | 0.00 | 0.00 | 82 | 1012.1 |
| 20260901094512 | 66 | 166 | 0.0 | 0.0 | 0.00 | 0.00 | 0.00 | 91 | 1013.6 |
| 20260901093041 | 71 | 179 | 0.0 | 0.0 | 0.00 | 0.00 | 0.00 | 82 | 1012.1 |
| 20260901093011 | 66 | 166 | 0.0 | 0.0 | 0.00 | 0.00 | 0.00 | 90 | 1013.4 |
| 20260901091541 | 71 | 359 | 0.0 | 2.0 | 0.00 | 0.00 | 0.00 | 83 | 1012.0 |
| 20260901091510 | 66 | 166 | 0.0 | 0.0 | 0.00 | 0.00 | 0.00 | 90 | 1013.3 |
| 20260901090040 | 71 | 179 | 0.0 | 0.0 | 0.00 | 0.00 | 0.00 | 84 | 1011.9 |
| 20260901090013 | 66 | 166 | 0.0 | 0.0 | 0.00 | 0.00 | 0.00 | 89 | 1013.5 |
| 20260901084544 | 72 | 359 | 0.0 | 0.0 | 0.00 | 0.00 | 0.00 | 83 | 1011.7 |
| 20260901084507 | 66 | 166 | 0.0 | 0.0 | 0.00 | 0.00 | 0.00 | 89 | 1013.4 |